TimeCST,TemperatureF,Dew PointF,Humidity,Sea Level PressureIn,VisibilityMPH,Wind Direction,Wind SpeedMPH,Gust SpeedMPH,PrecipitationIn,Events,Conditions,WindDirDegrees,DateUTC
12:53 AM,48.9,45.0,86,30.05,9.0,South,5.8,-,N/A,,Clear,180,2012-12-01 06:53:00
2:53 AM,55.9,51.1,84,30.04,9.0,South,8.1,-,N/A,,Overcast,180,2012-12-01 08:53:00
3:42 AM,55.4,51.8,88,30.03,9.0,South,8.1,-,N/A,,Overcast,170,2012-12-01 09:42:00
3:53 AM,55.9,51.1,84,30.02,9.0,South,8.1,-,N/A,,Overcast,170,2012-12-01 09:53:00
4:53 AM,55.0,51.1,86,30.01,7.0,South,8.1,-,N/A,,Mostly Cloudy,170,2012-12-01 10:53:00
5:13 AM,55.4,51.8,88,30.01,8.0,SSE,8.1,-,N/A,,Overcast,160,2012-12-01 11:13:00
5:53 AM,57.0,52.0,83,30.00,8.0,SSE,9.2,-,N/A,,Overcast,150,2012-12-01 11:53:00
6:20 AM,57.2,53.6,88,30.00,8.0,SSE,10.4,-,N/A,,Overcast,160,2012-12-01 12:20:00
6:32 AM,57.2,51.8,82,29.99,8.0,SSE,10.4,-,N/A,,Overcast,160,2012-12-01 12:32:00
6:53 AM,57.9,53.1,84,29.99,8.0,SSE,11.5,-,N/A,,Overcast,160,2012-12-01 12:53:00
7:16 AM,59.0,53.6,82,29.99,9.0,South,15.0,-,N/A,,Overcast,170,2012-12-01 13:16:00
7:53 AM,57.9,53.1,84,29.97,8.0,South,13.8,-,N/A,,Overcast,170,2012-12-01 13:53:00
8:53 AM,59.0,53.1,81,29.98,9.0,South,13.8,-,N/A,,Overcast,170,2012-12-01 14:53:00
9:53 AM,62.1,55.0,78,29.96,10.0,South,17.3,25.3,N/A,,Overcast,170,2012-12-01 15:53:00
10:53 AM,64.0,55.0,73,29.94,10.0,South,17.3,25.3,N/A,,Overcast,180,2012-12-01 16:53:00
11:53 AM,66.0,57.0,73,29.91,10.0,South,17.3,25.3,N/A,,Mostly Cloudy,180,2012-12-01 17:53:00
12:53 PM,66.9,57.0,70,29.88,10.0,South,15.0,-,N/A,,Overcast,190,2012-12-01 18:53:00
1:15 PM,68.0,57.2,68,29.88,10.0,South,15.0,23.0,N/A,,Overcast,190,2012-12-01 19:15:00
1:53 PM,69.1,57.0,65,29.86,10.0,South,15.0,-,N/A,,Overcast,190,2012-12-01 19:53:00
4:53 PM,66.9,57.0,70,29.85,10.0,South,9.2,-,N/A,,Mostly Cloudy,180,2012-12-01 22:53:00
5:53 PM,66.9,55.9,68,29.85,10.0,South,10.4,-,N/A,,Overcast,170,2012-12-01 23:53:00
6:53 PM,68.0,55.9,65,29.85,10.0,South,10.4,-,N/A,,Overcast,180,2012-12-02 00:53:00
7:53 PM,68.0,55.9,65,29.86,10.0,South,11.5,-,N/A,,Overcast,190,2012-12-02 01:53:00
8:53 PM,66.0,55.9,70,29.86,10.0,SSW,12.7,-,N/A,,Mostly Cloudy,200,2012-12-02 02:53:00
9:53 PM,66.9,55.9,68,29.88,10.0,SSW,12.7,-,N/A,,Mostly Cloudy,200,2012-12-02 03:53:00
10:53 PM,66.0,57.0,73,29.88,10.0,SSW,10.4,-,N/A,,Overcast,200,2012-12-02 04:53:00
11:53 PM,64.9,57.0,75,29.90,10.0,SW,9.2,-,N/A,,Overcast,220,2012-12-02 05:53:00